Погода в Кубе

Погода в Кубе : погода сейчас, прогноз погоды и архив. Всё, что Вы хотите узнать о погоде в Кубе!

Поиск расширенной информации на нашем сайте:

Другие новости

Новости СМИ2

Главная страница сайта

Новости сайта

02.10.2013

Напоминаем, что на нашем новом сайте вы можете получить высокодетализированные прогнозы погоды по пунктам России, СНГ и мира (включающие важные для авиации метеовеличины, такие как направление и скорость ветра, видимость, явления погоды, количество и форма облачности, нижняя и верхняя граница облачности), а также ознакомиться с разнообразными материалами по авиационной метеорологии и подборкой полезных ссылок на эту тему.

Сайт Метеоцентр.Азия посвящён разработке технологий оптимизации авиаметеорологического обслуживания, включая проектирование и перспективное создание нескольких автоматизированных авиаметеорологических систем:
- система выпуска высокодетальных прогностических карт явлений погоды для нижнего воздушного пространства по России и ближнему зарубежью;
- система верификации прогнозов TAF (выпускаемых синоптиками официальных АМСГ РФ и ближнего зарубежья) и AUTOTAF (выпускаемых сайтом Метеоцентр.Азия) - выявление ошибок, онлайн-сопоставление с фактической погодой METAR, автоматическое внесение коррективов в прогнозы при резком отклонении фактической погоды от прогноза, подсчёт оправдываемости прогнозов по элементам и в целом;
- система обработки, анализа и отображения авиаметеорологической информации для применения провайдерами метеорологической информации.


Погода в Кубе - сегодня

Время (UTC), дата Ветер
(°,м/с) 
Видим.   Явления Облачность Т
(°С)
Тd
(°С)
f(%) Тe
(°С)
Pmin
(гПа)
dP
(гПа)
Po
(мм)
O2
(г/м3)
Тmin Tmax R s Состояние
почвы
03 25.05.17 тихо ()   10 км    9/9 600 м 
[Sc]
+12.9 +10.2 84 +15  1017.7  0.6  715  273           
06 25.05.17 тихо ()   10 км    9/9 600 м 
[Sc]
+15.3 +8.6 64 +16  1017.6  0.4  715  271           
09 25.05.17 тихо ()   10 км    9/9 600 м 
[Sc]
+16.5 +10 65 +19  1016.3  -0.9  715  270           
12 25.05.17 140 (ЮВ) 10 км    9/9 600 м 
[Sc]
+15.6 +12.1 80 +21  1016.2  -0.3  714  270           
15 25.05.17 050 (СВ) 10 км    9/9 600 м 
[Sc]
+14.1 +10 76 +17  1017.9  1.3  715  272           
18 25.05.17 250 (З) 2000 м    9/9 600 м 
[Sc]
+13 +9.4 79 +14  1019.3  1.1  716  274    +17.3       
21 25.05.17 тихо ()   2000 м    9/9 600 м 
[Sc]
+13 +9.7 80 +15  1018.5  -0.8  716  273           
00 26.05.17 тихо ()   2000 м    9/9 600 м 
[Sc]
+13 +10.3 84 +16  1018.5  716  273           
03 26.05.17 тихо ()   10 км    9/9 600 м 
[Sc]
+13.5 +10.4 82 +16  1018.4  0.1  716  273           
06 26.05.17 140 (ЮВ) 10 км    9/9 600 м 
[Sc]
+15.9 +9.3 65 +18  1017.5  -0.5  715  271  +12.9        влажная 
09 26.05.17 160 (Ю) 10 км    9/9 600 м 
[Sc]
+14.4 +11 80 +18  1017.8  0.1  715  272           
12 26.05.17 160 (Ю) 10 км    9/9 600 м 
[Sc]
+14.4 +11.4 82 +18  1016.8  -0.9  715  271           
15 26.05.17 160 (Ю) 2000 м    10/10 300 м 
[Ns]
+13.3 +12 92 +19  1016.3  -0.7  714  272           
18 26.05.17 140 (ЮВ) 2000 м    10/10 300 м 
[Ns]
+12.8 +11.4 91 +17  1016.9  0.4  715  273    +17.5       
21 26.05.17 270 (З) 2000 м    ясно 
+11.9 +9.3 84 +13  1015.4  -1.7  713  274           
00 27.05.17 290 (З) 2000 м    ясно 
+10.7 +8.2 85 +10  1014.6  -0.9  713  275           
03 27.05.17 тихо ()   20000 м    6/0 верхняя 
[Ci ing]
+12.5 +9.5 82 +14  1014.3  0.1  713  273           
06 27.05.17 090 (В) 20000 м    8/0 верхняя 
[Cs]
+15.2 +10.9 75 +19  1014.5  0.7  713  270           
09 27.05.17 тихо ()   20000 м    3/3 1000 м 
[Cu hum]
+18.1 +11.5 65 +22  1013  -0.7  713  267           
12 27.05.17 090 (В) 10 км    8/8 600 м 
[Cu med, cong]
+19.1 +12.5 66 +26  1011  -1.6  711  265           
15 27.05.17 090 (В) 10 км    8/8 600 м 
[Cu med, cong]
+16.6 +12.8 78 +24  1010.4  -1.1  711  267           
21 27.05.17 тихо ()   2000 м  {ливн. осадки}  10/10 600 м кучево-дожд. 
[Cb cap]
+14.1 +12.4 89 +20  1012.7  -0.4  712  270           
00 28.05.17 270 (З) 2000 м    ясно 
+13.6 +12.1 91 +19  1012.6  -0.2  712  271           
03 28.05.17 270 (З) 20000 м    ясно 
+13.4 +10.7 84 +17  1013.6  0.9  712  272         
09 28.05.17 070 (В) 20000 м    1/1 1000 м 
[Cu med, cong]
+21.9 +11.8 53 +27  1012.3  713  264           
Время (UTC), дата Ветер
(°,м/с) 
Видим.   Явления Облачность Т
(°С)
Тd
(°С)
f(%) Тe
(°С)
Pmin
(гПа)
dP
(гПа)
Po
(мм)
O2
(г/м3)
Тmin Tmax R s Состояние
почвы

Для получения пояснительной информации подведите курсор к названию столбца.

ПОГОДА в Кубе - архив

Всё, что Вы хотите узнать о погоде в Кубе - удобно и подробно!

Выберите нужную дату (начиная с 1 января 2015* года) и нажмите кнопку "Найти".
Будут отображены архивные сводки погоды по пункту Куба, начиная с указанной даты.


Отображать данные в формате CSV (для использования в таблицах Excel)


Внимание! Наш архив погоды предназначен исключительно для личного некоммерческого использования в познавательных целях. Если Вам необходимы официальные справки о состоянии погоды (для производственных, юридических, коммерческих и т.п. целей), обращайтесь в органы Росгидромета.

*Примечание: данная дата относится к архиву по метеостанциям СССР (Россия, СНГ, Балтия).
Архив по метеостанциям Зарубежной Европы и Азии (кроме Китая) хранится 10 дней, по другим регионам земного шара (Китай, Африка, Америка, Австралия, Океания) - 1 день.

Куба - район местоположения метеостанции


Название, широта, долгота, высота метеостанции:
Куба 41.4°ш. 48.5°д. 552 м над ур. моря [Азербайджан]

Дополнительная информация

В oтличие oт бoльшинства пoгoдных сайтoв мы публикуем пoдрoбную метеoинфoрмацию в детальнoм прoфессиoнальнoм фoрмате.

Характеристики температуры и влажнoсти вoздуха измеряются на высoте 2 м в тени вдали oт зданий и деревьев.
Скoрoсть ветра измеряется на высoте 10 м (на урoвне рoста челoвека скoрoсть ветра ниже в 1.5-2 раза). Если метеoстанция нахoдится в гoрoде или в лесу, тo скoрoсть ветра занижена на 2-4 м/с пo сравнению с oткрытым местoм. Скoрoсть ветра над акватoриями крупных рек и oзёр, а также на вершинах хoлмoв на 2-5 м/с выше, чем в oбычных услoвиях.
Атмoсфернoе давление в разных тoчках местнoсти мoжет значительнo oтличаться oт давления на метеoстанции, в зависимoсти oт услoвий рельефа (при пoдъёме на 10 м давление пoнижается примернo на 1 мм рт.ст.).